Рапид-Сити

США     44°04′50″N   103°13′50″W
В апреле 2022 года жителям России запретили посещать сайт meteo.paraplan.net по решению Генеральной прокуратуры. Аудитория сайта уменьшилась в 10 раз. Владельцы сайта не видят смысла в поддержке погодного сервера в таких условиях. Сайт будет закрыт в октябре.
темп.,
°C
ветер,
м/с
пор.,
м/с
влажн.,
%
обл.,
%
осадки,
мм/ч
давл.,
гПа
погр.,
м
29 сентября, чт
чт2900:00+17юз44450 0.0 101462
03:00+18з44260 0.0 101341
06:00+18з45255 0.0 101356
09:00+26з25182 0.0 1012262
12:00+31в25114 0.0 10092776
15:00+31ююв241539 0.0 10073259
18:00+26с472067 0.1 1007162
21:00+18зсз334636 0.8 100942
30 сентября, пт
пт3000:00+18зюз3242100 0.9 100815
03:00+18з334225 0.0 100821
06:00+18зсз474439 0.0 1008108
09:00+21ссз2339100 0.0 1009227
12:00+26всв432899 0.0 10081252
15:00+27в552569 0.0 10072151
18:00+20з91148100 0.1 1010485
21:00+16зсз3368100 0.3 101137
1 октября, сб
сб100:00+16з2262100 0.3 101223
03:00+16зсз2265100 0.1 101234
06:00+15юз1177100 0.9 101430
09:00+14вюв0178100 0.8 1016166
12:00+14с457899 1.3 1015346
15:00+13с2291100 4.1 1016236
18:00+13зюз018841 5.1 1016276
21:00+10юз119497 0.0 101711
2 октября, вс
вс200:00+11юв1190100 0.0 101710
03:00+10ссз11891 0.0 101710
06:00+9юз22893 0.0 101810
09:00+14ююз01654 0.1 1018195
12:00+19ююв675428 0.1 10161131
15:00+21ююв574684 0.0 10141683
18:00+19ююв34585 0.1 1013108
21:00+15сз3386100 4.6 101585
3 октября, пн
пн300:00+12зюз1195100 5.3 101511
03:00+12ю2294100 0.0 101413
06:00+12ссз3485100 0.0 101485
09:00+14ссз6980100 0.3 1016740
12:00+14с7983100 1.1 1018827
15:00+16ссз676394 0.6 10171200
18:00+14ссз4775100 2.1 1019334
21:00+12ссз368798 0.2 1021233